Tracking 29892 objects as of 21-Nov-2024
HD Live streaming from Space Station
objects crossing your sky now

THORAD AGENA D DEB


10-day predictions


NORAD ID: 5957
Int'l Code: 1970-025MN
Perigee: 671.0 km
Apogee: 697.4 km
Inclination: 99.6 °
Period: 98.3 minutes
Semi major axis: 7055 km
RCS: 0.0082 m2 (small)
Launch date: April 8, 1970
Source: United States (US)
Launch site: AIR FORCE WESTERN TEST RANGE (AFWTR)

Note: This is SATELLITE DEBRIS
Your satellite tracking list
Your tracking list is empty




NASA's NSSDC Master Catalog

Two Line Element Set (TLE):
1  5957U 70025MN  24324.55721411  .00034497  00000-0  64005-2 0  9995
2  5957  99.6327 357.6277 0018688 283.8265  76.0853 14.65000995 88640
Source of the keplerian elements: AFSPC